Location: *
(44.1392°N, 4.8079°E)
Time: 01:07:45
(UTC+00:00)

CZ-3B R/B - Visible Passes

Search period start: 24 October 2021 00:00
Search period end: 03 November 2021 00:00
Orbit: 365 x 17300 km, 54.9° (Epoch: 23 October)

Date Brightness Start Highest point End Pass type
(mag) Time Alt. Az. Time Alt. Az. Time Alt. Az.
24 Oct 8.1 03:04:23 10° SSE 05:15:56 54° ESE 05:51:19 10° NE visible
25 Oct 9.2 01:23:47 10° E 01:50:18 13° E 02:09:04 10° ENE visible
25 Oct 7.3 04:55:15 10° SSW 07:26:58 84° SE 07:52:53 10° NE visible
26 Oct 8.6 02:01:56 10° SE 03:49:28 39° ESE 04:26:57 10° NE visible
27 Oct 7.8 03:32:59 10° S 05:57:42 68° ESE 06:30:08 10° NE visible
28 Oct 9.0 01:14:53 10° ESE 02:26:01 24° E 02:59:37 10° ENE visible
28 Oct 7.1 05:37:27 10° SSW 08:09:27 84° NW 08:31:05 10° NE visible
29 Oct 8.3 02:20:50 10° SSE 04:29:23 51° ESE 05:06:41 10° NE visible
30 Oct 9.2 00:59:47 10° E 01:05:58 10° E 01:11:38 10° ENE visible
30 Oct 7.5 04:07:34 10° S 06:40:10 81° SE 07:08:32 10° NE visible
31 Oct 8.7 01:21:18 10° SE 03:03:31 36° E 03:41:47 10° NE visible
01 Nov 8.0 02:47:30 10° S 05:10:42 64° ESE 05:45:33 10° NE visible
02 Nov 9.0 00:38:04 10° ESE 01:40:52 21° E 02:13:09 10° ENE visible
02 Nov 7.2 04:47:39 10° SSW 07:22:49 87° NW 07:46:42 10° NE visible
